Evansville, IN

6:56 PM CST on November 19, 2017 (GMT -0600)
Evansville Regional

Weather History for KEVV - August, 2014

Change the Weather History Date:

Saturday, August 2, 2014

  Actual Average Record
Temperature  
Mean Temperature 77 °F 78 °F  
Max Temperature 87 °F 88 °F 99 °F (2012)
Min Temperature 66 °F 67 °F 57 °F (1965)
Degree Days  
Heating Degree Days 0 0  
Month to date heating degree days 0 0  
Since 1 June heating degree days 0 6  
Since 1 July heating degree days 0 0  
Cooling Degree Days 12 13  
Month to date cooling degree days 22 26  
Year to date cooling degree days 890 862  
Since 1 June cooling degree days 679 727  
Growing Degree Days 26 (Base 50)    
Moisture  
Dew Point 61 °F    
Average Humidity 59    
Maximum Humidity 78    
Minimum Humidity 40    
Precipitation  
Precipitation 0.00 in 0.10 in 2.31 in (2012)
Month to date precipitation T 0.20  
Year to date precipitation 29.38 28.14  
Snow  
Snow 0.00 in 0.00 in 0.00 in (2002)
Month to date snowfall 0.0 0.0  
Since 1 June snowfall 0.0 0.0  
Since 1 July snowfall 0.0 0.0  
Snow Depth 0.00 in    
Sea Level Pressure  
Sea Level Pressure 30.09 in    
Wind  
Wind Speed 5 mph (North)    
Max Wind Speed 14 mph    
Max Gust Speed 18 mph    
Visibility 10 miles    
Events      
T = Trace of Precipitation, MM = Missing Value Source: NWS Daily Summary

Daily Weather History Graph

Daily Weather History Graph

Search for Another Location

Airport or City:

Trip Planner

Search our weather history database for the weather conditions in past years. The results will help you decide how hot, cold, wet, or windy it might be!

Date:

Astronomy

Aug. 02, 2014 Rise Set
Actual Time 5:53 AM CDT 7:58 PM CDT
Civil Twilight 5:24 AM CDT 8:27 PM CDT
Nautical Twilight 4:49 AM CDT 9:02 PM CDT
Astronomical Twilight 4:10 AM CDT 9:41 PM CDT
Moon 12:08 PM CDT (8/2) 11:23 PM CDT (8/2)
Length of Visible Light 15h 02m
Length of Day
14h 04m
Waxing Crescent, 37% of the Moon is Illuminated
Aug 2
Waxing Crescent
Aug 3
First Quarter
Aug 10
Full
Aug 17
Last Quarter
Aug 25
New

Hourly Weather History & Observations

Time (CDT) Temp. Heat Index Dew Point Humidity Pressure Visibility Wind Dir Wind Speed Gust Speed Precip Events Conditions
12:54 AM 71.1 °F - 63.0 °F 75% 30.06 in 10.0 mi North 5.8 mph - 0.00 in   Clear
1:54 AM 71.1 °F - 63.0 °F 75% 30.06 in 10.0 mi NNE 3.5 mph - N/A   Mostly Cloudy
2:54 AM 70.0 °F - 63.0 °F 78% 30.05 in 10.0 mi Calm Calm - N/A   Scattered Clouds
3:54 AM 69.1 °F - 62.1 °F 78% 30.06 in 10.0 mi North 9.2 mph - N/A   Overcast
4:54 AM 69.1 °F - 60.1 °F 73% 30.07 in 10.0 mi NNE 10.4 mph - N/A   Scattered Clouds
5:54 AM 68.0 °F - 59.0 °F 73% 30.09 in 10.0 mi South 3.5 mph - N/A   Scattered Clouds
6:54 AM 69.1 °F - 60.1 °F 73% 30.10 in 10.0 mi Calm Calm - N/A   Mostly Cloudy
7:54 AM 71.1 °F - 61.0 °F 70% 30.12 in 10.0 mi Calm Calm - N/A   Mostly Cloudy
8:54 AM 73.9 °F - 61.0 °F 64% 30.12 in 10.0 mi ENE 5.8 mph - N/A   Clear
9:54 AM 75.9 °F - 62.1 °F 62% 30.14 in 10.0 mi NE 10.4 mph - N/A   Clear
10:54 AM 79.0 °F - 62.1 °F 56% 30.12 in 10.0 mi NNE 5.8 mph - N/A   Clear
11:54 AM 82.9 °F 83.2 °F 60.1 °F 46% 30.11 in 10.0 mi North 6.9 mph - N/A   Clear
12:54 PM 84.9 °F 85.0 °F 61.0 °F 44% 30.11 in 10.0 mi North 8.1 mph - N/A   Partly Cloudy
1:54 PM 86.0 °F 85.7 °F 60.1 °F 41% 30.09 in 10.0 mi North 8.1 mph - N/A   Partly Cloudy
2:54 PM 84.0 °F 83.5 °F 57.9 °F 41% 30.08 in 10.0 mi North 5.8 mph - N/A   Clear
3:54 PM 86.0 °F 85.4 °F 59.0 °F 40% 30.07 in 10.0 mi North 6.9 mph 18.4 mph N/A   Partly Cloudy
4:54 PM 84.9 °F 84.2 °F 57.9 °F 40% 30.06 in 10.0 mi NNW 6.9 mph - N/A   Partly Cloudy
5:54 PM 84.9 °F 84.4 °F 59.0 °F 41% 30.06 in 10.0 mi NNE 9.2 mph - N/A   Clear
6:54 PM 82.9 °F 83.3 °F 61.0 °F 47% 30.06 in 10.0 mi North 6.9 mph - N/A   Clear
7:54 PM 79.0 °F - 62.1 °F 56% 30.07 in 10.0 mi North 3.5 mph - N/A   Clear
8:54 PM 75.9 °F - 62.1 °F 62% 30.08 in 10.0 mi NNE 3.5 mph - N/A   Clear
9:54 PM 73.9 °F - 63.0 °F 68% 30.09 in 10.0 mi Calm Calm - N/A   Clear
10:54 PM 73.9 °F - 62.1 °F 66% 30.10 in 10.0 mi Calm Calm - N/A   Clear
11:54 PM 72.0 °F - 63.0 °F 73% 30.10 in 10.0 mi North 3.5 mph - N/A   Clear